LKKV Weather Reports


time (UTC)temp
F
wind
direction
speed
knots
gust
knots
rain 1hr
in
rain 24hr
in
rain mn
in
humidity
%
barometer
mb
20260503200212 59 240 4.3 0.0 0.00 0.00 0.00 47 1013.0
20260503191622 63 50 1.7 0.0 0.00 0.00 0.00 42
20260503190218 63 0 0.9 0.0 0.00 0.00 0.00 42 1013.0
20260503183210 64 120 4.3 0.0 0.00 0.00 0.00 39 1012.0
20260503181623 68 110 4.3 0.0 0.00 0.00 0.00 34
20260503180213 68 110 5.2 0.0 0.00 0.00 0.00 34 1012.0
20260503173210 70 140 4.3 0.0 0.00 0.00 0.00 32 1012.0
20260503171622 73 150 4.3 0.0 0.00 0.00 0.00 20
20260503170218 73 150 4.3 0.0 0.00 0.00 0.00 20 1012.0
20260503160203 75 170 2.6 0.0 0.00 0.00 0.00 17 1013.0
20260503150211 77 180 5.2 0.0 0.00 0.00 0.00 16 1013.0
20260503140210 75 110 8.7 0.0 0.00 0.00 0.00 20 1014.0
20260503130217 75 160 5.2 0.0 0.00 0.00 0.00 22 1014.0
20260503120210 73 0 5.2 0.0 0.00 0.00 0.00 23 1015.0
20260503110213 73 170 5.2 0.0 0.00 0.00 0.00 25 1016.0
20260503100217 72 0 2.6 0.0 0.00 0.00 0.00 26 1016.0
20260503090210 70 170 2.6 0.0 0.00 0.00 0.00 26 1017.0
20260503081621 68 360 1.7 0.0 0.00 0.00 0.00 28
20260503080211 68 0 1.7 0.0 0.00 0.00 0.00 28 1017.0
20260503071621 63 110 4.3 0.0 0.00 0.00 0.00 39
20260503070212 63 110 2.6 0.0 0.00 0.00 0.00 39 1017.0
20260503060210 57 0 1.7 0.0 0.00 0.00 0.00 41 1017.0
20260503051622 50 120 1.7 0.0 0.00 0.00 0.00 53
20260503050210 50 0 1.7 0.0 0.00 0.00 0.00 53 1017.0
20260503041622 46 270 1.7 0.0 0.00 0.00 0.00 52
20260503040211 46 0 0.9 0.0 0.00 0.00 0.00 52 1017.0
20260503031620 46 100 4.3 0.0 0.00 0.00 0.00 52
20260503030218 46 110 2.6 0.0 0.00 0.00 0.00 52 1017.0
20260503021621 45 0 0.0 0.0 0.00 0.00 0.00 56
20260503020210 46 0 0.0 0.0 0.00 0.00 0.00 52 1017.0
20260503011622 50 100 4.3 0.0 0.00 0.00 0.00 46
20260503010211 50 100 4.3 0.0 0.00 0.00 0.00 46 1017.0
20260503001622 48 140 1.7 0.0 0.00 0.00 0.00 49
20260503000218 48 140 1.7 0.0 0.00 0.00 0.00 49 1018.0
20260502231621 50 120 4.3 0.0 0.00 0.00 0.00 49
20260502230216 50 120 2.6 0.0 0.00 0.00 0.00 49 1018.0
20260502221622 54 120 1.7 0.0 0.00 0.00 0.00 40
20260502220210 54 120 1.7 0.0 0.00 0.00 0.00 40 1018.0
20260502211622 54 150 1.7 0.0 0.00 0.00 0.00 40
20260502210211 54 150 2.6 0.0 0.00 0.00 0.00 40 1019.0
20260502201621 55 110 1.7 0.0 0.00 0.00 0.00 37